VOLGA R/B (44425 NORAD) Tracking and Keplerian Element Data

This shows tracking and keplerian element data for the satellite.

Feedback or suggestion? Click here.




ElementValue
Catalog44425
NameVOLGA R/B
Epoch Orbit414
Epoch Day220.86042308
Epoch Year2019
RAAN276.4041
Inclination97.6128
Eccentricity0.0023959
Argument of Perigee338.7636
Mean Anonmoly21.2604
Mean Motion15.24406788
Decay Rate2.62E-06
L11 44425U 19039E 19220.86042308 .00000262 00000-0 13716-4 0 9998
L22 44425 97.6128 276.4041 0023959 338.7636 21.2604 15.24406788 4141

Live tracking and technical data element details for VOLGA R/B (NORAD 44425). VOLGA R/B can be tracked NOW for your location showing map with azimuth and elevation plus other details from your city location.

Track the satellite on the map from your city or location and see movement details for azimuth, elevation, latitude, longitude, range, height, and movement on the map or in text.







IsCatalogInMostPopularTable: catalog: 44425, numindb: 27
Update: records affected: 1



GetName: 44425 VOLGA R/B

Hit Count: updated at: Thu, 05 Dec 2019 16:44:33 GMT